Location: Gad�tanya
(48.0500°N, 20.8500°E)
Time: 23:10:29
(UTC+00:00)

Sich 1 - Pass Details

Date: 05 July 2020
Orbit: 595 x 624 km, 82.5° (Epoch: 05 August)

Event Time Altitude Azimuth Distance (km) Brightness Sun altitude
Exits shadow 23:15:26 32° 142° (SE) 1,031 3.8 -18.9°
Maximum altitude 23:16:53 45° 93° (E) 822 3.7 -18.8°
Drops below altitude 10° 23:21:02 10° 21° (NNE) 1,967 6.8 -18.7°
Sets 23:23:20 0° 15° (NNE) 2,881 8.2 -18.7°
